{"data":{"norad_id":56697,"intl_designator":"2023-067K","name":"STARLINK-30130","alt_names":[],"object_type":"PAYLOAD","status":"ACTIVE","operator":null,"country":"US","launch_date":"2023-05-19","launch_site_code":"AFETR","launch_vehicle":null,"mission":null,"orbit_class":"UNKNOWN","rcs_meters":null,"size_class":null,"mass_kg":null,"dimensions":null,"purposes":["comms"],"wikipedia_slug":null,"has_3d_model":false,"image_url":null,"decayed_at":null,"tle_current":{"epoch":"2026-05-25T04:44:03.340032Z","epoch_age_seconds":54696,"freshness":"FRESH","line1":"1 56697U 23067K   26145.19726088 -.00003972  00000+0 -13489-3 0  9990","line2":"2 56697  43.0080 198.7501 0003706 281.6169  78.4267 15.27562547167147","mean_motion":15.27562547,"eccentricity":0.0003706,"inclination_deg":43.008,"raan_deg":198.7501,"arg_perigee_deg":281.6169,"mean_anomaly_deg":78.4267,"bstar":-0.00013489,"rev_number":16714,"period_min":94.267825748152,"perigee_km":480.55858216278,"apogee_km":485.64413203306,"semimajor_km":6861.2383570979,"source":"CELESTRAK","updated_at":"2026-05-25T13:38:18.120503Z"}}}